Regional Weather Roundup
Issued by NWS Portland, ME

Home | Current Version | Previous Version | Text Only | Print | Product List | Glossary On
Versions: 1 2 3 4 5 6 7 8 9 10 11 12 13 14 15 16 17 18 19 20 21 22 23 24 25 26 27 28 29 30 31 32 33 34 35 36 37 38 39 40 41 42 43 44 45 46 47 48 49 50
000
ASUS41 KGYX 011410
RWRGYX
WEATHER ROUNDUP FOR MAINE AND NEW HAMPSHIRE
NATIONAL WEATHER SERVICE GRAY ME
900 AM EST SUN FEB 01 2015

MEZ002-005-006-010-012-015-018-020-021-024-026-027-029-011500-
MAINE

CITY           SKY/WX    TMP DP  RH WIND       PRES   REMARKS
PORTLAND       MOSUNNY    8  -2  63 W5        30.06R
SANFORD        SUNNY     12   0  57 SW13      30.05S WCI  -3
BAR HARBOR     SUNNY     12   5  73 W16G22    29.98R WCI  -4
WISCASSET      MOSUNNY   14   0  53 VRB6      30.06R
ROCKLAND       SUNNY     10   1  67 NW3       30.03R
FRYEBURG       SUNNY      7  -2  66 CALM      30.01R
LEWISTONAUBURN SUNNY     14   0  52 NW16G22   30.02S WCI  -2
AUGUSTA        MOSUNNY   12  -2  53 W9        30.01R
WATERVILLE     MOSUNNY   12  -2  52 NW5       29.97R
BANGOR         SUNNY      9  -3  58 NW16G22   29.98R WCI  -8
GREENVILLE       N/A      1  -7  68 NW10G25   29.85R WCI -15
MILLINOCKET    SUNNY      5  -6  60 NW20G28   29.93R WCI -15
HOULTON        SUNNY      4  -6  63 NW18G31   29.83R WCI -16
PRESQUE ISLE   SUNNY      5   3  92 NW20      29.84R WCI -15
FRENCHVILLE    SUNNY     -2 -12  62 NW25G39   29.78R HAZE    WCI -27
CARIBOU        SUNNY      2  -8  63 NW15G32   29.81R WCI -17
$$

NHZ002-005-008-009-011-012-014-011500-
NEW HAMPSHIRE

CITY           SKY/WX    TMP DP  RH WIND       PRES   REMARKS
PORTSMOUTH     MOSUNNY   13   1  58 W9        30.09S
ROCHESTER      SUNNY     14   2  58 W9G16     30.05F
NASHUA         MOSUNNY   13   1  58 VRB5      30.14R
MANCHESTER     MOSUNNY    7  -1  70 N5        30.11R
CONCORD        MOSUNNY   14   2  58 NW12      30.11R WCI   0
LACONIA        SUNNY     14   1  57 W15G22    30.04S WCI  -1
PLYMOUTH       FAIR      12   6  74 W10G18    30.09R WCI  -1
BERLIN         CLOUDY     6  -3  66 NW5       30.03R
WHITEFIELD     MOSUNNY   -7 -12  79 CALM      30.09R
JAFFREY        SUNNY     10   0  63 NW5       30.07R
KEENE          SUNNY      0  -2  92 CALM      30.13R
LEBANON        MOSUNNY   -2  -7  79 CALM      30.15R
MT WASHINGTON  ICE FOG  -13 -13 100 NW84G91     N/A  VSB 1/8 WCI -56
$$

VTZ005-007-008-011500-
VERMONT

CITY           SKY/WX    TMP DP  RH WIND       PRES   REMARKS
ST JOHNSBURY     N/A    -10 -16  74 MISG      30.15R
MONTPELIER     CLOUDY     5   0  79 NW9       30.14R HAZE
BURLINGTON     MOSUNNY    7  -1  70 N7        30.25R
$$

MAZ007-012-024-CTZ003-RIZ002-NYZ038-NYZ072-011500-
SOUTHERN NEW ENGLAND AND NY

CITY           SKY/WX    TMP DP  RH WIND       PRES   REMARKS
BOSTON         MOSUNNY   18   8  65 W15G22    30.15R WCI   4
WORCESTER      SUNNY    N/A N/A N/A SW9       30.08R
NANTUCKET      SUNNY     24  14  65 NW14      30.15R WCI  12
PROVIDENCE     PTSUNNY   20   9  62 W12       30.17R WCI   8
HARTFORD       PTSUNNY   18   8  65 SW8       30.17R
ALBANY         MOSUNNY   16   8  71 E5        30.18R
NEW YORK CITY  PTSUNNY   29  16  58 W8        30.22F
$$

ANZ081-ANZ082-ANZ150-NHZ014-MEZ023>029-011500-
COASTAL MARINE OBSERVATIONS

STATION/POSITION TIME  TEMP    WIND        PRES    WAVE
                       AIR SEA DIR/SP/G            HT/PER
                 (UTC) (F)     (DEG/KT/KT) (MB)    (FT/S)
MOUNT DESERT ROC 1400   18                 1013.9R
MATINICUS ROCK   1400          290/ 27/ 31 1016.5R
PORTLAND WX BUOY 1350   16 40  290/ 16/ 19 1017.5R   2/ 4
WELLS            1300   11 34  270/  8/ 13 1017.4R
ISLE OF SHOALS   1400   16     270/ 23/ 26 1018.3R
JEFFREYS LEDGE   1321      44                N/A     6/ 6
CASHES LEDGE BUO 1350   25 43  270/ 17/ 21 1016.5S   5/ 6
$$

.............KEY..............
   WCI - WIND CHILL
   TC  - TEMPERATURE IN CELSIUS
   VSB - VISIBILITY IN MILES
   HX  - HEAT INDEX
   FAIR- INDICATES FEW OR NO CLOUDS BELOW 12,000 FT, WITH NO
         SIGNIFICANT WEATHER AND/OR OBSTRUCTIONS TO VISIBILITY.




USA.gov is the U.S. government's official web portal to all federal, state and local government web resources and services.